GW5386 Weather Reports


time (UTC)temp
F
wind
direction
speed
knots
gust
knots
rain 1hr
in
rain 24hr
in
rain mn
in
humidity
%
barometer
mb
20260906231537 64 311 1.7 4.3 0.00 0.10 0.07 64 1015.6
20260906230032 63 329 4.3 7.0 0.00 0.10 0.07 65 1015.8
20260906224532 63 273 1.7 5.2 0.00 0.10 0.07 67 1016.0
20260906223036 62 313 0.9 3.5 0.00 0.10 0.07 67 1016.3
20260906221531 62 311 0.0 2.6 0.00 0.10 0.07 67 1016.2
20260906220033 63 55 1.7 6.1 0.00 0.10 0.07 67 1016.2
20260906214529 63 58 4.3 7.0 0.00 0.10 0.07 66 1016.1
20260906213029 63 87 3.5 7.0 0.00 0.10 0.07 66 1016.1
20260906211539 63 68 1.7 7.8 0.00 0.10 0.07 65 1016.0
20260906210044 64 322 2.6 7.8 0.00 0.10 0.07 65 1016.0
20260906204527 63 44 5.2 8.7 0.00 0.10 0.07 65 1016.1
20260906203030 63 121 3.5 9.6 0.00 0.10 0.07 66 1016.1
20260906201538 62 73 2.6 9.6 0.00 0.10 0.07 66 1016.2
20260906200025 63 60 3.5 8.7 0.00 0.10 0.07 65 1016.2
20260906194525 63 50 4.3 7.0 0.00 0.10 0.07 64 1016.3
20260906193025 64 32 5.2 11.3 0.00 0.10 0.07 63 1016.2
20260906191524 64 360 7.0 13.0 0.00 0.10 0.07 61 1016.1
20260906190021 65 41 6.1 13.9 0.00 0.10 0.07 62 1016.1
20260906184519 64 74 4.3 12.2 0.00 0.10 0.07 62 1016.1
20260906183013 62 73 7.8 14.8 0.01 0.10 0.07 66 1016.2
20260906181510 61 13 6.1 12.2 0.02 0.10 0.07 72 1016.5
20260906180005 58 53 3.5 6.1 0.02 0.10 0.07 76 1017.0
20260906174505 57 54 2.6 7.0 0.01 0.09 0.06 79 1017.3
20260906173004 55 340 3.5 9.6 0.01 0.09 0.06 78 1017.6
20260906171503 57 270 2.6 5.2 0.00 0.08 0.05 79 1018.2
20260906170003 58 328 0.9 3.5 0.00 0.08 0.05 76 1018.0
20260906164501 58 68 0.9 3.5 0.00 0.08 0.05 76 1018.0
20260906163103 58 96 1.7 3.5 0.04 0.08 0.05 78 1018.0
20260906161600 57 83 1.7 2.6 0.05 0.08 0.05 79 1017.8
20260906160059 56 358 0.0 2.6 0.05 0.08 0.05 81 1017.9
20260906154558 55 288 1.7 6.1 0.05 0.08 0.05 79 1018.3
20260906153114 54 297 3.5 11.3 0.01 0.04 0.01 78 1018.5
20260906151602 54 303 6.1 11.3 0.00 0.03 0.00 78 1018.5
20260906150055 54 290 7.0 18.2 0.00 0.03 0.00 78 1018.5
20260906144554 54 304 7.8 19.1 0.00 0.04 0.00 78 1018.8
20260906143051 58 283 7.8 13.9 0.00 0.04 0.00 72 1019.1
20260906141551 58 71 3.5 7.8 0.00 0.04 0.00 73 1018.5
20260906140047 59 59 3.5 8.7 0.00 0.04 0.00 72 1018.4
20260906134607 59 359 2.6 7.0 0.00 0.09 0.00 72 1018.3
20260906133051 59 304 3.5 8.7 0.00 0.09 0.00 73 1018.1
20260906131541 58 60 3.5 7.8 0.00 0.09 0.00 74 1017.9
20260906130041 58 50 3.5 9.6 0.00 0.09 0.00 74 1018.2
20260906124539 57 345 6.1 9.6 0.00 0.09 0.00 75 1018.4
20260906123052 57 41 2.6 7.8 0.00 0.09 0.00 75 1018.1
20260906121542 57 25 6.1 12.2 0.00 0.09 0.00 75 1018.1
20260906120035 56 235 3.5 11.3 0.00 0.09 0.00 76 1018.3
20260906114534 56 329 7.8 11.3 0.00 0.09 0.00 76 1018.7
20260906113035 56 330 7.0 10.4 0.00 0.09 0.00 76 1018.5
20260906111534 56 347 7.8 12.2 0.00 0.09 0.00 75 1018.3
20260906110132 55 353 6.1 10.4 0.00 0.09 0.00 75 1018.3
20260906104530 55 337 6.1 11.3 0.00 0.09 0.00 73 1018.4
20260906103030 56 360 7.0 13.9 0.00 0.09 0.00 72 1018.4
20260906101531 56 342 6.1 13.0 0.00 0.09 0.00 72 1018.6
20260906100030 57 355 7.8 12.2 0.00 0.09 0.00 71 1018.7
20260906094525 57 4 5.2 10.4 0.00 0.09 0.00 73 1018.7
20260906093035 57 325 7.8 14.8 0.00 0.09 0.00 72 1018.7
20260906091522 57 329 8.7 13.9 0.00 0.09 0.00 72 1018.9
20260906090036 58 340 7.8 17.4 0.00 0.09 0.00 72 1019.2
20260906084520 56 283 9.6 15.6 0.00 0.09 0.00 76 1019.8
20260906083016 57 333 6.1 13.9 0.00 0.09 0.00 73 1019.4
20260906081515 57 338 6.1 13.0 0.00 0.09 0.00 73 1019.1
20260906080010 57 326 7.0 12.2 0.00 0.09 0.00 72 1018.9
20260906074508 57 10 6.1 11.3 0.00 0.09 0.00 71 1019.1
20260906073006 58 321 6.1 13.9 0.00 0.09 0.00 71 1019.1
20260906071504 58 16 7.8 12.2 0.00 0.09 0.00 71 1019.2
20260906070100 58 350 7.0 13.9 0.00 0.09 0.00 71 1019.5
20260906064559 57 326 4.3 7.8 0.00 0.09 0.09 72 1019.9
20260906063058 57 27 7.0 12.2 0.00 0.09 0.09 71 1019.8
20260906061558 57 356 7.0 11.3 0.00 0.09 0.09 71 1019.9
20260906060056 56 348 6.1 11.3 0.00 0.09 0.09 72 1020.0
20260906054557 56 2 6.1 13.9 0.01 0.09 0.09 71 1019.8
20260906053056 55 352 6.1 10.4 0.01 0.09 0.09 72 1019.7
20260906051603 55 360 7.0 14.8 0.01 0.09 0.09 72 1019.7
20260906050106 56 34 10.4 20.0 0.01 0.09 0.09 72 1019.5
20260906044554 56 11 7.8 15.6 0.00 0.08 0.08 71 1020.3
20260906043100 56 330 9.6 17.4 0.02 0.08 0.08 72 1019.1
20260906041602 56 49 7.8 13.9 0.02 0.08 0.08 73 1019.0
20260906040053 56 322 7.8 13.9 0.02 0.08 0.08 72 1019.0
20260906034610 57 348 6.1 8.7 0.02 0.08 0.08 70 1019.6
20260906033051 60 314 7.0 12.2 0.00 0.06 0.06 62 1019.8
20260906031552 59 328 7.0 16.5 0.00 0.06 0.06 60 1019.5
20260906030048 59 347 7.8 17.4 0.00 0.06 0.06 61 1018.5
20260906024547 59 335 8.7 16.5 0.00 0.06 0.06 60 1018.1
20260906023047 60 20 11.3 16.5 0.00 0.06 0.06 59 1018.0
20260906021546 61 353 7.0 12.2 0.00 0.06 0.06 57 1018.0
20260906020048 62 316 1.7 7.0 0.00 0.06 0.06 54 1018.1
20260906014544 63 4 7.0 10.4 0.00 0.06 0.06 52 1018.1
20260906013100 64 356 4.3 8.7 0.00 0.06 0.06 52 1018.0
20260906011547 65 60 5.2 11.3 0.00 0.06 0.06 49 1018.1
20260906010041 66 2 6.1 11.3 0.00 0.06 0.06 48 1018.0
20260906004540 67 14 7.8 10.4 0.00 0.06 0.06 46 1018.2
20260906003040 69 42 4.3 11.3 0.00 0.06 0.06 45 1018.2
20260906001539 69 317 7.8 13.0 0.00 0.06 0.06 45 1018.1
20260906000042 69 307 6.1 10.4 0.00 0.06 0.06 46 1018.4
20260905234538 68 150 3.5 7.0 0.00 0.06 0.06 46 1018.5
20260905233042 69 341 3.5 10.4 0.00 0.06 0.06 44 1018.4